AMOS-4

Last updated on Fri Jul 11 2025 00:02:44 GMT+0000 (Coordinated Universal Time)

1 39237U 13045A 25191.63234874 .00000019 00000+0 00000+0 0 9990 2 39237 0.0160 230.6112 0001803 197.6997 153.1258 1.00272161 43538
UTC large
Height (km)
Speed (km/s)
/
Latitude / Longitude
Inclination (degrees)
Orbital Period (minutes)
Azimuth
Elevation
Range (km)
Doppler Factor

Next 0 passes for location: London (51.5072 / 0.1276)

Sorry there are no passes over London.